Location: Neuvy Saint Sepulchre
(46.5953°N, 1.8122°E)
Time: 15:12:59
(UTC+02:00)

ISS - Pass Details

Date: 09 May 2026
Orbit: 414 x 424 km, 51.6° (Epoch: 21 May)

Event Time Altitude Azimuth Distance (km) Brightness Sun altitude
Exits shadow 03:23:57 25° 92° (E) 882 -2.0 -22.6°
Drops below altitude 10° 03:25:33 10° 101° (ESE) 1,496 -0.8 -22.5°
Sets 03:27:40 0° 106° (ESE) 2,360 0.2 -22.3°
